WB4FAY-4 Weather Reports


time (UTC)temp
C
wind
direction
speed
KPH
gust
KPH
rain 1hr
cm
rain 24hr
cm
rain mn
cm
humidity
%
barometer
mb
20260903200017 36 339 0.0 9.7 0.00 0.00 0.00 42 1016.0
20260903195516 36 102 0.0 12.9 0.00 0.00 0.00 43 1016.1
20260903195017 36 89 6.4 11.3 0.00 0.00 0.00 43 1016.2
20260903194517 36 75 3.2 11.3 0.00 0.00 0.00 41 1016.2
20260903194017 36 92 8.0 16.1 0.00 0.00 0.00 42 1016.2
20260903193517 36 100 4.8 12.9 0.00 0.00 0.00 41 1016.4
20260903193017 36 34 1.6 12.9 0.00 0.00 0.00 40 1016.5
20260903192517 36 88 0.0 11.3 0.00 0.00 0.00 41 1016.5
20260903192017 36 100 3.2 8.0 0.00 0.00 0.00 42 1016.6
20260903191517 36 106 1.6 8.0 0.00 0.00 0.00 41 1016.6
20260903191017 36 86 0.0 9.7 0.00 0.00 0.00 40 1016.7
20260903190517 36 83 6.4 12.9 0.00 0.00 0.00 40 1016.8
20260903190016 36 107 1.6 12.9 0.00 0.00 0.00 40 1016.8
20260903185518 36 44 1.6 14.5 0.00 0.00 0.00 42 1016.9
20260903185017 36 42 1.6 14.5 0.00 0.00 0.00 41 1016.8
20260903184517 36 100 9.7 12.9 0.00 0.00 0.00 42 1016.8
20260903184018 36 35 9.7 11.3 0.00 0.00 0.00 41 1016.9
20260903183517 36 143 3.2 14.5 0.00 0.00 0.00 42 1017.0
20260903183017 36 83 6.4 17.7 0.00 0.00 0.00 42 1016.9
20260903182517 36 75 4.8 14.5 0.00 0.00 0.00 41 1017.0
20260903182018 36 104 4.8 16.1 0.00 0.00 0.00 41 1017.1
20260903181517 36 31 8.0 8.0 0.00 0.00 0.00 41 1017.2
20260903181017 36 52 0.0 20.9 0.00 0.00 0.00 41 1017.2
20260903180518 36 64 8.0 8.0 0.00 0.00 0.00 41 1017.2
20260903180017 36 78 4.8 11.3 0.00 0.00 0.00 41 1017.3
20260903175517 36 137 3.2 11.3 0.00 0.00 0.00 41 1017.3
20260903175022 36 90 3.2 16.1 0.00 0.00 0.00 42 1017.3
20260903174517 36 54 4.8 11.3 0.00 0.00 0.00 43 1017.4
20260903174017 36 58 0.0 11.3 0.00 0.00 0.00 43 1017.4
20260903173517 36 27 11.3 12.9 0.00 0.00 0.00 43 1017.5
20260903173017 36 79 3.2 8.0 0.00 0.00 0.00 43 1017.6
20260903172517 35 79 3.2 16.1 0.00 0.00 0.00 43 1017.6
20260903172017 35 97 8.0 11.3 0.00 0.00 0.00 44 1017.6
20260903171517 35 114 0.0 9.7 0.00 0.00 0.00 43 1017.7
20260903171017 35 95 4.8 12.9 0.00 0.00 0.00 44 1017.8
20260903170517 35 116 4.8 9.7 0.00 0.00 0.00 45 1017.8
20260903170016 35 11 6.4 9.7 0.00 0.00 0.00 44 1017.8
20260903165517 35 52 3.2 9.7 0.00 0.00 0.00 45 1018.0
20260903165017 35 86 0.0 16.1 0.00 0.00 0.00 46 1017.9
20260903164517 35 93 1.6 14.5 0.00 0.00 0.00 45 1018.0
20260903164017 35 96 3.2 12.9 0.00 0.00 0.00 44 1018.1
20260903163518 35 51 0.0 8.0 0.00 0.00 0.00 45 1018.1
20260903163017 35 100 4.8 9.7 0.00 0.00 0.00 46 1018.2
20260903162517 35 352 0.0 6.4 0.00 0.00 0.00 47 1018.3
20260903162017 35 45 3.2 8.0 0.00 0.00 0.00 48 1018.3
20260903161517 34 83 1.6 9.7 0.00 0.00 0.00 48 1018.4
20260903161017 34 56 3.2 9.7 0.00 0.00 0.00 49 1018.4
20260903160517 34 71 0.0 9.7 0.00 0.00 0.00 50 1018.5
20260903160017 34 89 6.4 8.0 0.00 0.00 0.00 50 1018.5
20260903155517 34 55 8.0 8.0 0.00 0.00 0.00 50 1018.6
20260903155017 33 72 6.4 8.0 0.00 0.00 0.00 51 1018.6
20260903154517 33 49 6.4 8.0 0.00 0.00 0.00 51 1018.6
20260903154017 33 54 0.0 6.4 0.00 0.00 0.00 53 1018.7
20260903153517 33 0 0.0 0.0 0.00 0.00 0.00 53 1018.7
20260903153017 33 0 0.0 0.0 0.00 0.00 0.00 54 1018.7
20260903152517 33 83 0.0 3.2 0.00 0.00 0.00 54 1018.6
20260903152017 32 93 1.6 9.7 0.00 0.00 0.00 55 1018.6
20260903151517 32 103 3.2 4.8 0.00 0.00 0.00 54 1018.5
20260903151017 32 85 0.0 4.8 0.00 0.00 0.00 53 1018.5
20260903150517 32 83 1.6 9.7 0.00 0.00 0.00 54 1018.4
20260903150017 32 0 0.0 0.0 0.00 0.00 0.00 55 1018.4
20260903145517 32 0 0.0 0.0 0.00 0.00 0.00 58 1018.4
20260903145017 32 0 0.0 0.0 0.00 0.00 0.00 60 1018.4
20260903144518 31 92 0.0 6.4 0.00 0.00 0.00 61 1018.3
20260903144017 31 134 0.0 4.8 0.00 0.00 0.00 63 1018.3
20260903143517 31 148 3.2 4.8 0.00 0.00 0.00 63 1018.2
20260903143017 30 138 1.6 6.4 0.00 0.00 0.00 64 1018.2
20260903142517 30 144 1.6 4.8 0.00 0.00 0.00 66 1018.2
20260903142017 30 172 0.0 3.2 0.00 0.00 0.00 67 1018.2
20260903141517 30 121 3.2 6.4 0.00 0.00 0.00 67 1018.3
20260903141018 29 123 1.6 4.8 0.00 0.00 0.00 68 1018.3
20260903140517 29 144 1.6 4.8 0.00 0.00 0.00 70 1018.3
20260903140017 29 92 0.0 4.8 0.00 0.00 0.00 70 1018.3
20260903135517 28 75 1.6 4.8 0.00 0.00 0.00 70 1018.3
20260903135016 28 90 3.2 6.4 0.00 0.00 0.00 71 1018.3
20260903134517 28 103 0.0 3.2 0.00 0.00 0.00 73 1018.3
20260903134017 28 104 1.6 4.8 0.00 0.00 0.00 74 1018.4
20260903133517 27 103 3.2 3.2 0.00 0.00 0.00 75 1018.4
20260903133017 27 106 0.0 3.2 0.00 0.00 0.00 76 1018.5
20260903132517 27 104 0.0 4.8 0.00 0.00 0.00 78 1018.5
20260903132017 27 103 1.6 6.4 0.00 0.00 0.00 79 1018.5
20260903131517 26 0 0.0 0.0 0.00 0.00 0.00 81 1018.5
20260903131017 26 0 0.0 0.0 0.00 0.00 0.00 82 1018.5
20260903130517 26 0 0.0 0.0 0.00 0.00 0.00 83 1018.5
20260903130017 26 0 0.0 0.0 0.00 0.00 0.00 84 1018.4
20260903125517 26 0 0.0 0.0 0.00 0.00 0.00 85 1018.4
20260903125017 25 0 0.0 0.0 0.00 0.00 0.00 86 1018.4
20260903124518 25 0 0.0 0.0 0.00 0.00 0.00 87 1018.3
20260903124017 25 0 0.0 0.0 0.00 0.00 0.00 87 1018.3
20260903123517 25 0 0.0 0.0 0.00 0.00 0.00 87 1018.3
20260903123017 25 0 0.0 0.0 0.00 0.00 0.00 87 1018.3
20260903122518 25 0 0.0 0.0 0.00 0.00 0.00 87 1018.3
20260903122017 25 0 0.0 0.0 0.00 0.00 0.00 87 1018.2
20260903121517 25 0 0.0 0.0 0.00 0.00 0.00 87 1018.2
20260903121018 25 0 0.0 0.0 0.00 0.00 0.00 87 1018.2
20260903120517 25 0 0.0 0.0 0.00 0.00 0.00 87 1018.2
20260903120017 25 0 0.0 0.0 0.00 0.00 0.00 87 1018.2
20260903115517 25 0 0.0 0.0 0.00 0.00 0.00 87 1018.2
20260903115018 25 0 0.0 0.0 0.00 0.00 0.00 87 1018.2
20260903114517 25 0 0.0 0.0 0.00 0.00 0.00 86 1018.2
20260903114017 25 0 0.0 0.0 0.00 0.00 0.00 86 1018.1
20260903113517 25 0 0.0 0.0 0.00 0.00 0.00 86 1018.1
20260903113017 25 0 0.0 0.0 0.00 0.00 0.00 86 1018.0
20260903112517 25 0 0.0 0.0 0.00 0.00 0.00 86 1018.0
20260903112017 25 0 0.0 0.0 0.00 0.00 0.00 86 1018.0
20260903111517 25 0 0.0 0.0 0.00 0.00 0.00 86 1017.9
20260903111017 25 0 0.0 0.0 0.00 0.00 0.00 86 1017.8
20260903110517 25 0 0.0 0.0 0.00 0.00 0.00 85 1017.8
20260903110017 25 0 0.0 0.0 0.00 0.00 0.00 85 1017.7
20260903105517 25 0 0.0 0.0 0.00 0.00 0.00 85 1017.7
20260903105017 25 0 0.0 0.0 0.00 0.00 0.00 85 1017.7
20260903104517 25 0 0.0 0.0 0.00 0.00 0.00 85 1017.7
20260903104017 25 0 0.0 0.0 0.00 0.00 0.00 85 1017.6
20260903103517 25 0 0.0 0.0 0.00 0.00 0.00 85 1017.7
20260903103017 25 0 0.0 0.0 0.00 0.00 0.00 85 1017.7
20260903102518 25 0 0.0 0.0 0.00 0.00 0.00 85 1017.7
20260903102017 25 0 0.0 0.0 0.00 0.00 0.00 85 1017.7
20260903101517 25 0 0.0 0.0 0.00 0.00 0.00 85 1017.7
20260903101017 25 0 0.0 0.0 0.00 0.00 0.00 85 1017.7
20260903100517 25 0 0.0 0.0 0.00 0.00 0.00 85 1017.7
20260903100017 25 0 0.0 0.0 0.00 0.00 0.00 85 1017.7
20260903095517 25 0 0.0 0.0 0.00 0.00 0.00 84 1017.7
20260903095017 25 0 0.0 0.0 0.00 0.00 0.00 85 1017.8
20260903094517 25 0 0.0 0.0 0.00 0.00 0.00 85 1017.7
20260903094017 25 0 0.0 0.0 0.00 0.00 0.00 85 1017.7
20260903093517 25 0 0.0 0.0 0.00 0.00 0.00 85 1017.7
20260903093017 25 0 0.0 0.0 0.00 0.00 0.00 85 1017.7
20260903092517 25 0 0.0 0.0 0.00 0.00 0.00 85 1017.6
20260903092018 25 0 0.0 0.0 0.00 0.00 0.00 84 1017.6
20260903091517 25 0 0.0 0.0 0.00 0.00 0.00 84 1017.7
20260903091017 25 0 0.0 0.0 0.00 0.00 0.00 84 1017.6
20260903090517 25 0 0.0 0.0 0.00 0.00 0.00 84 1017.6
20260903090017 25 0 0.0 0.0 0.00 0.00 0.00 84 1017.6
20260903085517 25 0 0.0 0.0 0.00 0.00 0.00 83 1017.6
20260903085017 25 0 0.0 0.0 0.00 0.00 0.00 83 1017.6
20260903084517 25 0 0.0 0.0 0.00 0.00 0.00 83 1017.6
20260903084017 25 0 0.0 0.0 0.00 0.00 0.00 83 1017.6
20260903083517 25 0 0.0 0.0 0.00 0.00 0.00 83 1017.7
20260903083017 25 0 0.0 0.0 0.00 0.00 0.00 83 1017.7
20260903082517 25 0 0.0 0.0 0.00 0.00 0.00 83 1017.6
20260903082017 25 0 0.0 0.0 0.00 0.00 0.00 82 1017.6
20260903081517 25 0 0.0 0.0 0.00 0.00 0.00 82 1017.6
20260903081017 25 0 0.0 0.0 0.00 0.00 0.00 82 1017.5
20260903080517 25 0 0.0 0.0 0.00 0.00 0.00 82 1017.5
20260903080017 25 0 0.0 0.0 0.00 0.00 0.00 82 1017.4
20260903075517 25 0 0.0 0.0 0.00 0.00 0.00 82 1017.5
20260903075017 26 191 0.0 1.6 0.00 0.00 0.00 81 1017.5
20260903074517 26 0 0.0 0.0 0.00 0.00 0.00 81 1017.5
20260903074017 26 0 0.0 0.0 0.00 0.00 0.00 81 1017.6
20260903073517 26 0 0.0 0.0 0.00 0.00 0.00 81 1017.5
20260903073017 26 72 0.0 0.0 0.00 0.00 0.00 81 1017.6
20260903072517 26 0 0.0 0.0 0.00 0.00 0.00 81 1017.6
20260903072017 26 0 0.0 0.0 0.00 0.00 0.00 80 1017.6
20260903071517 26 0 0.0 0.0 0.00 0.00 0.00 80 1017.5
20260903071018 26 0 0.0 0.0 0.00 0.00 0.00 80 1017.6
20260903070517 26 0 0.0 0.0 0.00 0.00 0.00 80 1017.6
20260903070017 26 0 0.0 0.0 0.00 0.00 0.00 80 1017.6
20260903065517 26 0 0.0 0.0 0.00 0.00 0.00 80 1017.6
20260903065017 26 0 0.0 0.0 0.00 0.00 0.00 80 1017.6
20260903064517 26 0 0.0 0.0 0.00 0.00 0.00 80 1017.7
20260903064017 26 0 0.0 0.0 0.00 0.00 0.00 80 1017.8
20260903063518 26 0 0.0 0.0 0.00 0.00 0.00 80 1017.8
20260903063017 26 0 0.0 0.0 0.00 0.00 0.00 80 1017.8
20260903062517 26 0 0.0 0.0 0.00 0.00 0.00 79 1017.8
20260903062017 26 0 0.0 0.0 0.00 0.00 0.00 79 1017.8
20260903061517 26 0 0.0 0.0 0.00 0.00 0.00 78 1017.8
20260903061017 26 0 0.0 0.0 0.00 0.00 0.00 78 1017.9
20260903060517 26 0 0.0 0.0 0.00 0.00 0.00 78 1017.9
20260903060017 26 0 0.0 0.0 0.00 0.00 0.00 78 1017.8
20260903055517 26 0 0.0 0.0 0.00 0.00 0.00 78 1017.8
20260903055018 26 0 0.0 0.0 0.00 0.00 0.00 78 1017.8
20260903054517 26 0 0.0 0.0 0.00 0.00 0.00 78 1017.8
20260903054017 26 0 0.0 0.0 0.00 0.00 0.00 78 1017.8
20260903053517 26 0 0.0 0.0 0.00 0.00 0.00 79 1017.9
20260903053017 26 0 0.0 0.0 0.00 0.00 0.00 78 1017.9
20260903052517 26 0 0.0 0.0 0.00 0.00 0.00 78 1017.9
20260903052017 26 0 0.0 0.0 0.00 0.00 0.00 78 1017.9
20260903051517 26 0 0.0 0.0 0.00 0.00 0.00 77 1017.9
20260903051018 27 0 0.0 0.0 0.00 0.00 0.00 77 1017.9
20260903050517 26 0 0.0 0.0 0.00 0.00 0.00 76 1017.9
20260903050017 27 0 0.0 0.0 0.00 0.00 0.00 76 1017.9
20260903045517 27 0 0.0 0.0 0.00 0.00 0.00 76 1017.9
20260903045017 27 0 0.0 0.0 0.00 0.00 0.00 75 1017.9
20260903044517 27 0 0.0 0.0 0.00 0.00 0.00 75 1017.9
20260903044017 27 0 0.0 0.0 0.00 0.00 0.00 75 1017.8
20260903043517 27 0 0.0 0.0 0.00 0.00 0.00 75 1017.8
20260903043017 27 0 0.0 0.0 0.00 0.00 0.00 75 1017.8
20260903042517 27 0 0.0 0.0 0.00 0.00 0.00 75 1017.9
20260903042018 27 0 0.0 0.0 0.00 0.00 0.00 75 1017.8
20260903041517 27 0 0.0 0.0 0.00 0.00 0.00 74 1017.9
20260903041017 27 0 0.0 0.0 0.00 0.00 0.00 74 1017.9
20260903040517 27 0 0.0 0.0 0.00 0.00 0.00 73 1017.9
20260903040017 27 0 0.0 0.0 0.00 0.00 0.00 73 1017.8
20260903035517 27 0 0.0 0.0 0.00 0.00 0.00 73 1017.9
20260903035017 27 0 0.0 0.0 0.00 0.00 0.00 73 1017.9
20260903034517 27 0 0.0 0.0 0.00 0.00 0.00 73 1018.0
20260903034017 27 0 0.0 0.0 0.00 0.00 0.00 73 1017.9
20260903033517 27 0 0.0 0.0 0.00 0.00 0.00 73 1017.8
20260903033017 27 0 0.0 0.0 0.00 0.00 0.00 72 1017.8
20260903032517 28 0 0.0 0.0 0.00 0.00 0.00 72 1017.9
20260903032018 27 0 0.0 0.0 0.00 0.00 0.00 72 1017.9
20260903031517 28 0 0.0 0.0 0.00 0.00 0.00 72 1017.9
20260903031017 28 0 0.0 0.0 0.00 0.00 0.00 71 1017.9
20260903030517 28 0 0.0 0.0 0.00 0.00 0.00 71 1017.9
20260903030017 28 0 0.0 0.0 0.00 0.00 0.00 71 1017.8
20260903025518 28 0 0.0 0.0 0.00 0.00 0.00 70 1017.8
20260903025017 28 0 0.0 0.0 0.00 0.00 0.00 70 1017.8
20260903024517 28 0 0.0 0.0 0.00 0.00 0.00 70 1017.8
20260903024017 28 0 0.0 0.0 0.00 0.00 0.00 70 1017.9
20260903023518 28 0 0.0 0.0 0.00 0.00 0.00 69 1017.8
20260903023017 28 0 0.0 0.0 0.00 0.00 0.00 69 1017.8
20260903022517 28 0 0.0 0.0 0.00 0.00 0.00 69 1017.7
20260903022017 28 0 0.0 0.0 0.00 0.00 0.00 68 1017.7
20260903021517 28 0 0.0 0.0 0.00 0.00 0.00 68 1017.8
20260903021016 28 0 0.0 0.0 0.00 0.00 0.00 68 1017.7
20260903020517 28 0 0.0 0.0 0.00 0.00 0.00 68 1017.7
20260903020017 29 0 0.0 0.0 0.00 0.00 0.00 67 1017.8
20260903015517 29 0 0.0 0.0 0.00 0.00 0.00 67 1017.8
20260903015017 29 0 0.0 0.0 0.00 0.00 0.00 67 1017.8
20260903014517 29 0 0.0 0.0 0.00 0.00 0.00 66 1017.6
20260903014017 29 0 0.0 0.0 0.00 0.00 0.00 65 1017.5
20260903013517 29 0 0.0 0.0 0.00 0.00 0.00 65 1017.4
20260903013017 30 0 0.0 0.0 0.00 0.00 0.00 64 1017.3
20260903012517 30 0 0.0 0.0 0.00 0.00 0.00 64 1017.4
20260903012017 30 0 0.0 0.0 0.00 0.00 0.00 63 1017.4
20260903011517 30 0 0.0 0.0 0.00 0.00 0.00 63 1017.3
20260903011017 30 0 0.0 0.0 0.00 0.00 0.00 62 1017.2
20260903010517 30 0 0.0 0.0 0.00 0.00 0.00 62 1017.2
20260903010017 30 72 0.0 0.0 0.00 0.00 0.00 61 1017.1
20260903005517 30 0 0.0 0.0 0.00 0.00 0.00 60 1017.1
20260903005017 30 0 0.0 0.0 0.00 0.00 0.00 60 1017.1
20260903004517 31 0 0.0 0.0 0.00 0.00 0.00 59 1017.1
20260903004017 31 0 0.0 0.0 0.00 0.00 0.00 58 1017.0
20260903003518 31 0 0.0 0.0 0.00 0.00 0.00 58 1017.1
20260903003017 31 0 0.0 0.0 0.00 0.00 0.00 57 1017.0
20260903002517 31 0 0.0 0.0 0.00 0.00 0.00 56 1017.0
20260903002018 31 0 0.0 0.0 0.00 0.00 0.00 56 1017.0
20260903001517 31 0 0.0 0.0 0.00 0.00 0.00 55 1016.9
20260903001017 32 0 0.0 0.0 0.00 0.00 0.00 54 1016.9
20260903000517 32 0 0.0 0.0 0.00 0.00 0.00 53 1017.0
20260903000017 32 0 0.0 0.0 0.00 0.00 0.00 52 1016.9
20260902235517 32 0 0.0 0.0 0.00 0.00 0.00 51 1016.8
20260902235017 33 0 0.0 0.0 0.00 0.00 0.00 50 1016.8
20260902234517 33 62 0.0 3.2 0.00 0.00 0.00 49 1016.9
20260902234018 33 152 1.6 4.8 0.00 0.00 0.00 47 1016.9
20260902233517 33 0 0.0 0.0 0.00 0.00 0.00 47 1016.9
20260902233017 34 158 0.0 4.8 0.00 0.00 0.00 46 1016.8
20260902232522 34 130 3.2 6.4 0.00 0.00 0.00 44 1016.8
20260902232017 35 88 0.0 14.5 0.00 0.00 0.00 43 1016.7
20260902231518 35 80 4.8 9.7 0.00 0.00 0.00 43 1016.6
20260902231017 35 95 0.0 8.0 0.00 0.00 0.00 43 1016.6
20260902230517 35 86 1.6 8.0 0.00 0.00 0.00 44 1016.7
20260902230017 35 93 0.0 11.3 0.00 0.00 0.00 44 1016.7
20260902225518 35 103 3.2 9.7 0.00 0.00 0.00 44 1016.7
20260902225017 35 93 0.0 9.7 0.00 0.00 0.00 43 1016.7
20260902224517 35 42 0.0 9.7 0.00 0.00 0.00 43 1016.8
20260902224017 35 42 3.2 8.0 0.00 0.00 0.00 43 1016.8
20260902223517 35 79 3.2 9.7 0.00 0.00 0.00 42 1016.8
20260902223017 35 100 4.8 14.5 0.00 0.00 0.00 42 1016.9
20260902222517 35 106 3.2 9.7 0.00 0.00 0.00 42 1016.9
20260902222017 35 86 0.0 16.1 0.00 0.00 0.00 42 1017.0
20260902221516 35 99 0.0 11.3 0.00 0.00 0.00 42 1017.0
20260902221017 35 68 1.6 12.9 0.00 0.00 0.00 41 1017.0
20260902220517 35 72 0.0 9.7 0.00 0.00 0.00 42 1017.0
20260902220017 35 66 1.6 8.0 0.00 0.00 0.00 41 1017.0
20260902215517 36 93 4.8 9.7 0.00 0.00 0.00 41 1017.0
20260902215017 36 86 0.0 14.5 0.00 0.00 0.00 40 1016.9
20260902214517 36 92 0.0 12.9 0.00 0.00 0.00 40 1016.9
20260902214017 36 90 8.0 11.3 0.00 0.00 0.00 39 1016.9
20260902213517 36 68 6.4 11.3 0.00 0.00 0.00 38 1017.0
20260902213017 37 86 4.8 12.9 0.00 0.00 0.00 37 1017.0
20260902212517 37 71 0.0 6.4 0.00 0.00 0.00 37 1017.0
20260902212017 37 48 0.0 3.2 0.00 0.00 0.00 36 1016.9
20260902211516 37 65 1.6 12.9 0.00 0.00 0.00 36 1017.0
20260902211018 37 75 6.4 12.9 0.00 0.00 0.00 37 1017.1
20260902210517 37 18 4.8 8.0 0.00 0.00 0.00 37 1017.1
20260902210017 36 103 1.6 8.0 0.00 0.00 0.00 38 1017.1
20260902205517 36 96 0.0 12.9 0.00 0.00 0.00 38 1017.2
20260902205017 36 85 3.2 11.3 0.00 0.00 0.00 39 1017.2
20260902204517 36 106 0.0 12.9 0.00 0.00 0.00 39 1017.2
20260902204017 37 1 4.8 6.4 0.00 0.00 0.00 39 1017.3
20260902203517 37 347 4.8 16.1 0.00 0.00 0.00 39 1017.4
20260902203017 37 164 6.4 6.4 0.00 0.00 0.00 38 1017.5
20260902202517 37 80 1.6 12.9 0.00 0.00 0.00 37 1017.6
20260902202017 37 130 0.0 9.7 0.00 0.00 0.00 37 1017.6
20260902201517 37 97 3.2 8.0 0.00 0.00 0.00 36 1017.7
20260902201018 37 83 1.6 16.1 0.00 0.00 0.00 37 1017.7
20260902200517 36 82 4.8 11.3 0.00 0.00 0.00 38 1017.8